PDA006 UKWW-LCLK

Flight info

Callsign PDA006
Flight time 2h 24m
Altitude 33000
Route NIROV N743 LAVDA DCT TUVAP M861 RAKUR/N0452F330 UM856 BAG UP29 HISAR UB545 OKLAM/N0455F340 UM853 AYT/N0456F350 UA16 TOMBI M855 DASNI M601 BONEK
Aircraft A321/M-SDE3FGHIJ4RWY/LB1

Departure

Time 2026-04-25 10:11
Airport Vinnytsia/Gavyryshivka International Airport (UKWW)

Arrival

Time 2026-04-25 12:35
Airport Larnaca International Airport (LCLK)
Time Latitude Longitude Altitude Speed Heading
2026-04-25 09:43 49.24342 28.60697 985 ft 0 kts 229°
2026-04-25 10:06 49.24341 28.60694 972 ft 1 kts 229°
2026-04-25 10:06 49.24329 28.60678 980 ft 3 kts 213°
2026-04-25 10:06 49.24300 28.60692 979 ft 6 kts 127°
2026-04-25 10:07 49.24325 28.60766 978 ft 11 kts 46°
2026-04-25 10:07 49.24347 28.60860 978 ft 9 kts 119°
2026-04-25 10:07 49.24290 28.60942 974 ft 14 kts 138°
2026-04-25 10:07 49.24203 28.61060 977 ft 20 kts 138°
2026-04-25 10:08 49.24084 28.61222 976 ft 25 kts 139°
2026-04-25 10:08 49.23955 28.61399 977 ft 25 kts 138°
2026-04-25 10:08 49.23826 28.61577 980 ft 25 kts 138°
2026-04-25 10:08 49.23693 28.61757 980 ft 26 kts 138°
2026-04-25 10:09 49.23560 28.61938 977 ft 26 kts 137°
2026-04-25 10:09 49.23427 28.62120 980 ft 26 kts 139°
2026-04-25 10:09 49.23331 28.62253 980 ft 13 kts 120°
2026-04-25 10:09 49.23372 28.62364 978 ft 13 kts 49°
2026-04-25 10:10 49.23443 28.62459 970 ft 14 kts
2026-04-25 10:10 49.23522 28.62377 979 ft 17 kts 319°
2026-04-25 10:10 49.23781 28.62016 975 ft 87 kts 318°
2026-04-25 10:10 49.24395 28.61184 976 ft 147 kts 318°
2026-04-25 10:11 49.25224 28.60008 1304 ft 172 kts 315°
2026-04-25 10:11 49.26149 28.58801 2102 ft 175 kts 314°
2026-04-25 10:11 49.27137 28.57685 2635 ft 185 kts 328°
2026-04-25 10:11 49.28517 28.57590 2777 ft 221 kts 15°
2026-04-25 10:12 49.29773 28.59154 2917 ft 253 kts 57°
2026-04-25 10:12 49.30208 28.61861 3161 ft 276 kts 97°
2026-04-25 10:12 49.27968 28.66217 4403 ft 272 kts 168°
2026-04-25 10:13 49.26108 28.66621 5061 ft 271 kts 181°
2026-04-25 10:13 49.24215 28.66770 5794 ft 274 kts 182°
2026-04-25 10:13 49.22303 28.66914 6530 ft 277 kts 182°
2026-04-25 10:13 49.20365 28.67171 7197 ft 284 kts 172°
2026-04-25 10:14 49.18440 28.67968 7872 ft 290 kts 164°
2026-04-25 10:14 49.16563 28.69167 8544 ft 295 kts 157°
2026-04-25 10:14 49.14723 28.70597 9233 ft 299 kts 154°
2026-04-25 10:14 49.12885 28.72120 9912 ft 302 kts 154°
2026-04-25 10:15 49.11013 28.73678 10279 ft 316 kts 154°
2026-04-25 10:15 49.08999 28.75317 10417 ft 338 kts 154°
2026-04-25 10:15 49.06855 28.77021 10546 ft 358 kts 155°
2026-04-25 10:15 49.04604 28.78780 10942 ft 367 kts 155°
2026-04-25 10:16 49.02312 28.80552 11471 ft 372 kts 155°
2026-04-25 10:16 49.00015 28.82311 11996 ft 377 kts 156°
2026-04-25 10:16 48.97558 28.83723 12527 ft 378 kts 168°
2026-04-25 10:16 48.94967 28.84393 13078 ft 379 kts 180°
2026-04-25 10:17 48.92336 28.84303 13621 ft 379 kts 189°
2026-04-25 10:17 48.89697 28.83917 14133 ft 383 kts 189°
2026-04-25 10:17 48.87036 28.83533 14651 ft 386 kts 189°
2026-04-25 10:17 48.84350 28.83147 15177 ft 389 kts 189°
2026-04-25 10:18 48.81637 28.82757 15700 ft 393 kts 189°
2026-04-25 10:18 48.78907 28.82365 16217 ft 396 kts 189°
2026-04-25 10:18 48.76149 28.81972 16762 ft 399 kts 189°
2026-04-25 10:18 48.73376 28.81584 17291 ft 402 kts 189°
2026-04-25 10:19 48.70581 28.81195 17788 ft 405 kts 189°
2026-04-25 10:19 48.67761 28.80801 18284 ft 409 kts 189°
2026-04-25 10:19 48.64912 28.80400 18726 ft 412 kts 189°
2026-04-25 10:19 48.62049 28.79994 19152 ft 415 kts 189°
2026-04-25 10:20 48.59155 28.79581 19566 ft 420 kts 189°
2026-04-25 10:20 48.56233 28.79165 20002 ft 423 kts 189°
2026-04-25 10:20 48.53329 28.78753 20428 ft 427 kts 189°
2026-04-25 10:20 48.50365 28.78336 20858 ft 430 kts 189°
2026-04-25 10:21 48.47382 28.77919 21252 ft 434 kts 189°
2026-04-25 10:21 48.44351 28.77493 21648 ft 438 kts 189°
2026-04-25 10:21 48.41309 28.77069 22048 ft 441 kts 189°
2026-04-25 10:21 48.38243 28.76641 22444 ft 444 kts 189°
2026-04-25 10:22 48.35153 28.76206 22808 ft 447 kts 189°
2026-04-25 10:22 48.32041 28.75773 23188 ft 451 kts 189°
2026-04-25 10:22 48.28910 28.75337 23548 ft 454 kts 189°
2026-04-25 10:22 48.25758 28.74900 23865 ft 457 kts 189°
2026-04-25 10:23 48.22581 28.74460 24165 ft 460 kts 189°
2026-04-25 10:23 48.19388 28.74015 24470 ft 462 kts 189°
2026-04-25 10:23 48.16177 28.73564 24792 ft 464 kts 188°
2026-04-25 10:23 48.12931 28.73457 25103 ft 470 kts 179°
2026-04-25 10:24 48.09669 28.74108 25393 ft 476 kts 169°
2026-04-25 10:24 48.06449 28.75302 25693 ft 479 kts 167°
2026-04-25 10:24 48.03200 28.76522 26005 ft 482 kts 167°
2026-04-25 10:24 47.99940 28.77736 26312 ft 484 kts 167°
2026-04-25 10:25 47.96660 28.78952 26598 ft 487 kts 167°
2026-04-25 10:25 47.93411 28.80154 26893 ft 489 kts 167°
2026-04-25 10:25 47.90098 28.81375 27182 ft 491 kts 167°
2026-04-25 10:25 47.86771 28.82600 27478 ft 493 kts 167°
2026-04-25 10:26 47.83434 28.83828 27744 ft 496 kts 167°
2026-04-25 10:26 47.80083 28.85057 28003 ft 498 kts 167°
2026-04-25 10:26 47.76701 28.86295 28275 ft 500 kts 167°
2026-04-25 10:26 47.73313 28.87536 28547 ft 503 kts 167°
2026-04-25 10:27 47.69904 28.88785 28796 ft 505 kts 167°
2026-04-25 10:27 47.66483 28.90040 29061 ft 508 kts 167°
2026-04-25 10:27 47.63047 28.91299 29335 ft 510 kts 167°
2026-04-25 10:27 47.59593 28.92564 29600 ft 512 kts 167°
2026-04-25 10:28 47.56128 28.93828 29897 ft 513 kts 167°
2026-04-25 10:28 47.52656 28.95092 30242 ft 513 kts 167°
2026-04-25 10:28 47.49237 28.96334 30563 ft 512 kts 167°
2026-04-25 10:28 47.45783 28.97587 30897 ft 511 kts 167°
2026-04-25 10:29 47.42325 28.98841 31201 ft 511 kts 167°
2026-04-25 10:29 47.38875 29.00091 31523 ft 511 kts 167°
2026-04-25 10:29 47.35433 29.01340 31835 ft 510 kts 167°
2026-04-25 10:29 47.31985 29.02593 32178 ft 509 kts 167°
2026-04-25 10:30 47.28549 29.03838 32463 ft 509 kts 167°
2026-04-25 10:30 47.26274 29.04659 32660 ft 508 kts 167°
2026-04-25 10:30 47.21682 29.06306 32976 ft 508 kts 167°
2026-04-25 10:31 47.14852 29.08747 33015 ft 503 kts 167°
2026-04-25 10:31 47.08055 29.11182 33021 ft 503 kts 167°
2026-04-25 10:32 47.01308 29.13595 33029 ft 503 kts 167°
2026-04-25 10:32 46.94514 29.16018 33027 ft 503 kts 167°
2026-04-25 10:33 46.87702 29.18436 33033 ft 504 kts 167°
2026-04-25 10:33 46.80889 29.20851 33026 ft 504 kts 166°
2026-04-25 10:34 46.74080 29.23262 33027 ft 504 kts 166°
2026-04-25 10:34 46.67261 29.25667 33027 ft 504 kts 166°
2026-04-25 10:35 46.60442 29.28060 33031 ft 504 kts 166°
2026-04-25 10:35 46.53624 29.30448 33031 ft 504 kts 166°
2026-04-25 10:36 46.46937 29.33227 33036 ft 503 kts 156°
2026-04-25 10:36 46.40808 29.38020 33031 ft 500 kts 147°
2026-04-25 10:37 46.34815 29.43144 33041 ft 501 kts 147°
2026-04-25 10:37 46.28797 29.48251 33042 ft 501 kts 147°
2026-04-25 10:38 46.22777 29.53332 33048 ft 501 kts 147°
2026-04-25 10:38 46.16763 29.58413 33046 ft 501 kts 147°
2026-04-25 10:39 46.10738 29.63479 33053 ft 501 kts 147°
2026-04-25 10:39 46.04713 29.68535 33052 ft 501 kts 147°
2026-04-25 10:40 45.98728 29.73554 33059 ft 501 kts 147°
2026-04-25 10:40 45.92708 29.78596 33060 ft 501 kts 147°
2026-04-25 10:41 45.86681 29.83631 33069 ft 501 kts 147°
2026-04-25 10:41 45.80656 29.88643 33069 ft 501 kts 147°
2026-04-25 10:42 45.74623 29.93638 33082 ft 501 kts 147°
2026-04-25 10:42 45.68595 29.98635 33077 ft 500 kts 147°
2026-04-25 10:43 45.62573 30.03616 33084 ft 500 kts 147°
2026-04-25 10:43 45.56544 30.08587 33089 ft 500 kts 147°
2026-04-25 10:44 45.50553 30.13501 33098 ft 500 kts 147°
2026-04-25 10:44 45.44522 30.18435 33098 ft 500 kts 147°
2026-04-25 10:45 45.38499 30.23361 33100 ft 499 kts 147°
2026-04-25 10:45 45.32468 30.28278 33097 ft 499 kts 148°
2026-04-25 10:46 45.26454 30.33184 33103 ft 499 kts 147°
2026-04-25 10:46 45.20437 30.38078 33101 ft 498 kts 148°
2026-04-25 10:47 45.14420 30.42936 33109 ft 498 kts 148°
2026-04-25 10:47 45.08402 30.47793 33102 ft 497 kts 148°
2026-04-25 10:48 45.02433 30.52602 33112 ft 497 kts 148°
2026-04-25 10:48 44.96429 30.57426 33112 ft 496 kts 148°
2026-04-25 10:49 44.90414 30.62218 33117 ft 496 kts 149°
2026-04-25 10:49 44.84405 30.66991 33107 ft 495 kts 149°
2026-04-25 10:50 44.78406 30.71758 33113 ft 495 kts 149°
2026-04-25 10:50 44.72400 30.76508 33113 ft 495 kts 149°
2026-04-25 10:51 44.66399 30.81236 33121 ft 494 kts 149°
2026-04-25 10:51 44.60441 30.85922 33111 ft 494 kts 149°
2026-04-25 10:52 44.54445 30.90637 33129 ft 494 kts 149°
2026-04-25 10:52 44.48461 30.95345 33117 ft 493 kts 149°
2026-04-25 10:53 44.42474 31.00033 33111 ft 493 kts 149°
2026-04-25 10:53 44.36488 31.04691 33108 ft 492 kts 150°
2026-04-25 10:54 44.30504 31.09323 33117 ft 492 kts 150°
2026-04-25 10:54 44.24527 31.13959 33113 ft 491 kts 150°
2026-04-25 10:55 44.18563 31.18580 33118 ft 490 kts 150°
2026-04-25 10:55 44.12597 31.23176 33112 ft 490 kts 150°
2026-04-25 10:56 44.06677 31.27721 33118 ft 489 kts 150°
2026-04-25 10:56 44.00727 31.32295 33115 ft 488 kts 150°
2026-04-25 10:57 43.95792 31.36088 33122 ft 488 kts 150°
2026-04-25 10:57 43.89850 31.40634 33115 ft 487 kts 151°
2026-04-25 10:58 43.83911 31.45157 33116 ft 487 kts 151°
2026-04-25 10:58 43.77981 31.49664 33109 ft 486 kts 151°
2026-04-25 10:59 43.72052 31.54169 33118 ft 486 kts 151°
2026-04-25 10:59 43.66131 31.58655 33113 ft 485 kts 152°
2026-04-25 11:00 43.60210 31.63132 33118 ft 485 kts 152°
2026-04-25 11:00 43.54302 31.67601 33115 ft 484 kts 152°
2026-04-25 11:01 43.48365 31.71946 33114 ft 482 kts 158°
2026-04-25 11:01 43.41981 31.74603 33107 ft 479 kts 169°
2026-04-25 11:02 43.35546 31.76695 33113 ft 478 kts 169°
2026-04-25 11:02 43.29072 31.78811 33110 ft 478 kts 169°
2026-04-25 11:03 43.22607 31.80925 33113 ft 477 kts 169°
2026-04-25 11:03 43.16156 31.83031 33104 ft 476 kts 169°
2026-04-25 11:04 43.09720 31.85131 33102 ft 475 kts 169°
2026-04-25 11:04 43.03298 31.87218 33103 ft 474 kts 169°
2026-04-25 11:05 42.96891 31.89304 33094 ft 473 kts 169°
2026-04-25 11:05 42.90491 31.91373 33102 ft 473 kts 169°
2026-04-25 11:06 42.84097 31.93430 33098 ft 472 kts 169°
2026-04-25 11:06 42.77745 31.95469 33101 ft 472 kts 169°
2026-04-25 11:07 42.71371 31.97570 33100 ft 471 kts 169°
2026-04-25 11:07 42.65006 31.99700 33113 ft 471 kts 169°
2026-04-25 11:08 42.58640 32.01807 33096 ft 470 kts 169°
2026-04-25 11:08 42.52291 32.03885 33106 ft 469 kts 169°
2026-04-25 11:09 42.45946 32.05966 33096 ft 469 kts 169°
2026-04-25 11:09 42.39611 32.08038 33106 ft 468 kts 169°
2026-04-25 11:10 42.33288 32.10117 33093 ft 467 kts 169°
2026-04-25 11:10 42.27013 32.12175 33101 ft 467 kts 170°
2026-04-25 11:11 42.20706 32.14226 33093 ft 466 kts 170°
2026-04-25 11:11 42.14411 32.16274 33094 ft 465 kts 170°
2026-04-25 11:12 42.08116 32.18307 33089 ft 464 kts 170°
2026-04-25 11:12 42.01839 32.20336 33096 ft 464 kts 170°
2026-04-25 11:13 41.95575 32.22360 33084 ft 463 kts 170°
2026-04-25 11:13 41.89320 32.24373 33103 ft 462 kts 170°
2026-04-25 11:14 41.83071 32.26382 33086 ft 461 kts 170°
2026-04-25 11:14 41.76838 32.28384 33081 ft 460 kts 170°
2026-04-25 11:15 41.70662 32.30364 33069 ft 459 kts 170°
2026-04-25 11:15 41.64453 32.32342 33070 ft 459 kts 170°
2026-04-25 11:16 41.55139 32.35290 33067 ft 458 kts 170°
2026-04-25 11:16 41.48940 32.37235 33065 ft 457 kts 170°
2026-04-25 11:17 41.42749 32.39174 33053 ft 457 kts 170°
2026-04-25 11:17 41.36562 32.41121 33059 ft 457 kts 170°
2026-04-25 11:18 41.30376 32.43063 33058 ft 457 kts 170°
2026-04-25 11:18 41.24198 32.44999 33052 ft 456 kts 170°
2026-04-25 11:19 41.18061 32.46919 33059 ft 456 kts 170°
2026-04-25 11:19 41.11897 32.48839 33044 ft 455 kts 169°
2026-04-25 11:20 41.05732 32.50749 33055 ft 455 kts 169°
2026-04-25 11:20 40.99574 32.52659 33053 ft 454 kts 169°
2026-04-25 11:21 40.93429 32.54573 33059 ft 453 kts 169°
2026-04-25 11:21 40.87303 32.56478 33052 ft 452 kts 169°
2026-04-25 11:22 40.82205 32.58048 33072 ft 452 kts 169°
2026-04-25 11:22 40.75090 32.60237 33065 ft 451 kts 169°
2026-04-25 11:23 40.68975 32.62120 33060 ft 451 kts 169°
2026-04-25 11:23 40.62861 32.63999 33073 ft 451 kts 169°
2026-04-25 11:24 40.56754 32.65864 33073 ft 450 kts 169°
2026-04-25 11:24 40.50655 32.67728 33077 ft 450 kts 169°
2026-04-25 11:25 40.44559 32.69589 33077 ft 450 kts 169°
2026-04-25 11:25 40.38472 32.71449 33079 ft 449 kts 169°
2026-04-25 11:26 40.32388 32.73303 33093 ft 448 kts 169°
2026-04-25 11:26 40.26348 32.75132 33091 ft 448 kts 170°
2026-04-25 11:27 40.20283 32.76972 33106 ft 447 kts 170°
2026-04-25 11:27 40.15204 32.78510 33108 ft 447 kts 170°
2026-04-25 11:28 40.08121 32.79599 33100 ft 437 kts 188°
2026-04-25 11:28 40.05137 32.78994 32822 ft 432 kts 198°
2026-04-25 11:28 40.02291 32.77744 32967 ft 433 kts 204°
2026-04-25 11:29 39.99585 32.75994 33092 ft 436 kts 207°
2026-04-25 11:29 39.96875 32.74174 33089 ft 439 kts 207°
2026-04-25 11:29 39.91442 32.70543 33082 ft 439 kts 207°
2026-04-25 11:30 39.86008 32.66919 33091 ft 438 kts 208°
2026-04-25 11:30 39.80589 32.63296 33094 ft 438 kts 208°
2026-04-25 11:31 39.75209 32.59712 33096 ft 437 kts 208°
2026-04-25 11:31 39.69806 32.56120 33085 ft 436 kts 208°
2026-04-25 11:32 39.64420 32.52543 33096 ft 434 kts 208°
2026-04-25 11:32 39.59045 32.48981 33100 ft 433 kts 208°
2026-04-25 11:33 39.53683 32.45436 33102 ft 432 kts 208°
2026-04-25 11:33 39.48344 32.41899 33082 ft 430 kts 209°
2026-04-25 11:34 39.43056 32.38404 33089 ft 429 kts 209°
2026-04-25 11:34 39.37735 32.34910 33084 ft 428 kts 209°
2026-04-25 11:35 39.32418 32.31439 33079 ft 428 kts 208°
2026-04-25 11:35 39.27109 32.27989 33081 ft 427 kts 208°
2026-04-25 11:36 39.21811 32.24549 33070 ft 426 kts 209°
2026-04-25 11:36 39.16523 32.21113 33083 ft 425 kts 209°
2026-04-25 11:37 39.11281 32.17705 33070 ft 425 kts 208°
2026-04-25 11:37 39.05998 32.14291 33076 ft 425 kts 208°
2026-04-25 11:38 39.00714 32.10895 33060 ft 424 kts 208°
2026-04-25 11:38 38.95435 32.07497 33069 ft 424 kts 208°
2026-04-25 11:39 38.90166 32.04094 33070 ft 424 kts 208°
2026-04-25 11:39 38.84897 32.00700 33057 ft 424 kts 208°
2026-04-25 11:40 38.79624 31.97322 33067 ft 423 kts 208°
2026-04-25 11:40 38.74352 31.93957 33052 ft 423 kts 208°
2026-04-25 11:41 38.69120 31.90616 33055 ft 423 kts 208°
2026-04-25 11:41 38.63863 31.87250 33058 ft 423 kts 208°
2026-04-25 11:42 38.58587 31.83886 33136 ft 426 kts 208°
2026-04-25 11:42 38.55932 31.82196 33370 ft 428 kts 208°
2026-04-25 11:42 38.53264 31.80501 33663 ft 428 kts 208°
2026-04-25 11:43 38.50600 31.78808 33976 ft 428 kts 208°
2026-04-25 11:43 38.47939 31.77118 34263 ft 427 kts 208°
2026-04-25 11:43 38.45278 31.75430 34529 ft 427 kts 208°
2026-04-25 11:43 38.42653 31.73770 34791 ft 426 kts 208°
2026-04-25 11:44 38.39960 31.72067 35003 ft 427 kts 208°
2026-04-25 11:44 38.37301 31.70386 35048 ft 427 kts 208°
2026-04-25 11:44 38.31984 31.67030 35048 ft 427 kts 208°
2026-04-25 11:45 38.26696 31.63689 35047 ft 427 kts 208°
2026-04-25 11:45 38.21375 31.60332 35048 ft 427 kts 208°
2026-04-25 11:46 38.15956 31.57219 35050 ft 429 kts 199°
2026-04-25 11:46 38.10029 31.56122 35052 ft 434 kts 184°
2026-04-25 11:47 38.04177 31.54691 35048 ft 428 kts 204°
2026-04-25 11:47 37.98907 31.51254 35048 ft 426 kts 210°
2026-04-25 11:48 37.93676 31.47681 35049 ft 427 kts 209°
2026-04-25 11:48 37.88424 31.44154 35052 ft 427 kts 209°
2026-04-25 11:49 37.83184 31.40602 35053 ft 428 kts 210°
2026-04-25 11:49 37.77947 31.37031 35058 ft 428 kts 210°
2026-04-25 11:50 37.72743 31.33490 35058 ft 428 kts 209°
2026-04-25 11:50 37.67493 31.29937 35061 ft 428 kts 209°
2026-04-25 11:51 37.62243 31.26399 35061 ft 428 kts 209°
2026-04-25 11:51 37.56995 31.22848 35057 ft 428 kts 209°
2026-04-25 11:52 37.51753 31.19302 35053 ft 428 kts 209°
2026-04-25 11:52 37.46509 31.15770 35056 ft 428 kts 209°
2026-04-25 11:53 37.41266 31.12246 35047 ft 427 kts 209°
2026-04-25 11:53 37.36023 31.08726 35045 ft 427 kts 209°
2026-04-25 11:54 37.30816 31.05235 35039 ft 427 kts 209°
2026-04-25 11:55 37.22950 30.99975 35036 ft 427 kts 208°
2026-04-25 11:55 37.17701 30.96475 35017 ft 427 kts 208°
2026-04-25 11:56 37.12456 30.92979 35011 ft 427 kts 208°
2026-04-25 11:56 37.07206 30.89481 35013 ft 427 kts 208°
2026-04-25 11:57 37.01955 30.85998 35005 ft 427 kts 208°
2026-04-25 11:57 36.96703 30.82512 35004 ft 427 kts 208°
2026-04-25 11:58 36.91174 30.79977 35002 ft 429 kts 191°
2026-04-25 11:58 36.85206 30.79693 35003 ft 431 kts 180°
2026-04-25 11:59 36.79215 30.79903 34999 ft 431 kts 180°
2026-04-25 11:59 36.73218 30.80100 34999 ft 431 kts 180°
2026-04-25 12:00 36.65232 30.80378 35008 ft 431 kts 180°
2026-04-25 12:01 36.55263 30.80723 34989 ft 431 kts 180°
2026-04-25 12:01 36.49271 30.80927 34999 ft 431 kts 180°
2026-04-25 12:02 36.40287 30.81230 34990 ft 431 kts 180°
2026-04-25 12:02 36.34297 30.81441 34986 ft 430 kts 180°
2026-04-25 12:03 36.29323 30.81607 34985 ft 430 kts 180°
2026-04-25 12:03 36.23348 30.81808 34989 ft 429 kts 180°
2026-04-25 12:04 36.17379 30.82011 34984 ft 429 kts 180°
2026-04-25 12:04 36.11416 30.82206 34990 ft 429 kts 180°
2026-04-25 12:05 36.05452 30.82406 34986 ft 428 kts 180°
2026-04-25 12:05 35.99495 30.82669 34989 ft 428 kts 179°
2026-04-25 12:06 35.93543 30.83044 34978 ft 428 kts 179°
2026-04-25 12:06 35.87634 30.83437 34976 ft 428 kts 179°
2026-04-25 12:07 35.81682 30.83809 34977 ft 428 kts 179°
2026-04-25 12:07 35.75730 30.84169 34974 ft 428 kts 179°
2026-04-25 12:08 35.69780 30.84562 34965 ft 429 kts 175°
2026-04-25 12:08 35.66869 30.85372 34962 ft 433 kts 162°
2026-04-25 12:08 35.64157 30.87025 34959 ft 438 kts 149°
2026-04-25 12:09 35.61820 30.89456 34953 ft 444 kts 135°
2026-04-25 12:09 35.60013 30.92547 34937 ft 450 kts 121°
2026-04-25 12:09 35.58837 30.96123 34941 ft 454 kts 110°
2026-04-25 12:09 35.57912 30.99786 34934 ft 455 kts 110°
2026-04-25 12:10 35.56039 31.07228 34940 ft 457 kts 110°
2026-04-25 12:10 35.54146 31.14687 34938 ft 458 kts 110°
2026-04-25 12:11 35.52243 31.22154 34940 ft 458 kts 110°
2026-04-25 12:11 35.50329 31.29616 34944 ft 459 kts 111°
2026-04-25 12:12 35.48411 31.37083 34937 ft 459 kts 110°
2026-04-25 12:12 35.47452 31.40827 34696 ft 459 kts 110°
2026-04-25 12:12 35.46508 31.44515 34096 ft 461 kts 110°
2026-04-25 12:13 35.45545 31.48253 33535 ft 459 kts 110°
2026-04-25 12:13 35.44581 31.51987 32992 ft 457 kts 111°
2026-04-25 12:13 35.43624 31.55682 32484 ft 453 kts 111°
2026-04-25 12:13 35.42667 31.59355 31970 ft 450 kts 111°
2026-04-25 12:14 35.41718 31.62999 31459 ft 447 kts 111°
2026-04-25 12:14 35.40776 31.66618 30948 ft 445 kts 111°
2026-04-25 12:14 35.39840 31.70217 30440 ft 442 kts 111°
2026-04-25 12:14 35.38907 31.73804 29914 ft 440 kts 111°
2026-04-25 12:15 35.37982 31.77358 29386 ft 436 kts 111°
2026-04-25 12:15 35.37068 31.80875 28898 ft 431 kts 111°
2026-04-25 12:15 35.36164 31.84351 28413 ft 426 kts 111°
2026-04-25 12:15 35.35264 31.87796 27930 ft 422 kts 111°
2026-04-25 12:16 35.34386 31.91156 27483 ft 418 kts 111°
2026-04-25 12:16 35.33502 31.94529 27024 ft 414 kts 111°
2026-04-25 12:16 35.32626 31.97865 26586 ft 410 kts 111°
2026-04-25 12:16 35.31753 32.01176 26148 ft 407 kts 111°
2026-04-25 12:17 35.30885 32.04458 25731 ft 404 kts 111°
2026-04-25 12:17 35.30023 32.07717 25311 ft 401 kts 111°
2026-04-25 12:17 35.29173 32.10957 24888 ft 399 kts 111°
2026-04-25 12:17 35.28330 32.14183 24485 ft 397 kts 111°
2026-04-25 12:18 35.27492 32.17397 24073 ft 395 kts 111°
2026-04-25 12:18 35.26658 32.20593 23651 ft 394 kts 111°
2026-04-25 12:18 35.25827 32.23774 23183 ft 392 kts 111°
2026-04-25 12:18 35.24999 32.26938 22744 ft 389 kts 111°
2026-04-25 12:19 35.23636 32.32134 22030 ft 383 kts 111°
2026-04-25 12:19 35.22547 32.36261 21444 ft 379 kts 111°
2026-04-25 12:19 35.21740 32.39320 21005 ft 376 kts 111°
2026-04-25 12:20 35.20938 32.42348 20571 ft 373 kts 111°
2026-04-25 12:20 35.20151 32.45320 20142 ft 371 kts 111°
2026-04-25 12:20 35.19350 32.48350 19699 ft 369 kts 111°
2026-04-25 12:20 35.18575 32.51283 19273 ft 367 kts 111°
2026-04-25 12:21 35.17792 32.54244 18837 ft 365 kts 111°
2026-04-25 12:21 35.17013 32.57183 18404 ft 363 kts 112°
2026-04-25 12:21 35.16234 32.60111 17943 ft 361 kts 112°
2026-04-25 12:21 35.15457 32.63017 17501 ft 358 kts 112°
2026-04-25 12:22 35.14687 32.65894 17074 ft 355 kts 112°
2026-04-25 12:22 35.13925 32.68746 16647 ft 352 kts 112°
2026-04-25 12:22 35.13169 32.71580 16236 ft 349 kts 111°
2026-04-25 12:22 35.12421 32.74385 15815 ft 346 kts 111°
2026-04-25 12:23 35.11677 32.77165 15396 ft 343 kts 111°
2026-04-25 12:23 35.10942 32.79912 14980 ft 341 kts 111°
2026-04-25 12:23 35.10205 32.82663 14584 ft 340 kts 111°
2026-04-25 12:23 35.09470 32.85399 14176 ft 339 kts 111°
2026-04-25 12:24 35.08737 32.88132 13765 ft 338 kts 111°
2026-04-25 12:24 35.08010 32.90832 13323 ft 337 kts 111°
2026-04-25 12:24 35.07119 32.93452 12912 ft 331 kts 122°
2026-04-25 12:24 35.05822 32.95736 12522 ft 325 kts 131°
2026-04-25 12:25 35.04412 32.97878 12131 ft 323 kts 131°
2026-04-25 12:25 35.03015 33.00010 11737 ft 321 kts 130°
2026-04-25 12:25 35.01624 33.02130 11354 ft 319 kts 130°
2026-04-25 12:25 35.00240 33.04242 10961 ft 317 kts 130°
2026-04-25 12:26 34.98871 33.06336 10577 ft 316 kts 130°
2026-04-25 12:26 34.97507 33.08423 10189 ft 313 kts 130°
2026-04-25 12:26 34.96171 33.10463 10025 ft 304 kts 130°
2026-04-25 12:26 34.94866 33.12451 9778 ft 296 kts 130°
2026-04-25 12:27 34.93585 33.14398 9484 ft 292 kts 130°
2026-04-25 12:27 34.92314 33.16327 9122 ft 293 kts 130°
2026-04-25 12:27 34.91056 33.18234 8746 ft 292 kts 130°
2026-04-25 12:27 34.89784 33.20162 8390 ft 291 kts 130°
2026-04-25 12:28 34.88514 33.22086 8042 ft 291 kts 130°
2026-04-25 12:28 34.87249 33.24000 7682 ft 290 kts 130°
2026-04-25 12:28 34.85995 33.25903 7408 ft 287 kts 129°
2026-04-25 12:28 34.84741 33.27806 7062 ft 286 kts 129°
2026-04-25 12:29 34.83491 33.29699 6719 ft 286 kts 129°
2026-04-25 12:29 34.82252 33.31573 6380 ft 282 kts 129°
2026-04-25 12:29 34.81030 33.33423 5852 ft 281 kts 129°
2026-04-25 12:29 34.79801 33.35284 5461 ft 282 kts 129°
2026-04-25 12:30 34.78572 33.37142 5073 ft 278 kts 129°
2026-04-25 12:30 34.77389 33.38924 4726 ft 263 kts 128°
2026-04-25 12:30 34.76268 33.40608 4387 ft 250 kts 128°
2026-04-25 12:30 34.75195 33.42223 4070 ft 242 kts 128°
2026-04-25 12:31 34.74201 33.43871 3752 ft 241 kts 112°
2026-04-25 12:31 34.74017 33.45805 3470 ft 230 kts 73°
2026-04-25 12:31 34.74795 33.47412 3162 ft 223 kts 48°
2026-04-25 12:31 34.75862 33.48753 2856 ft 218 kts 43°
2026-04-25 12:32 34.76944 33.49987 2568 ft 207 kts 42°
2026-04-25 12:32 34.77952 33.51128 2314 ft 188 kts 42°
2026-04-25 12:32 34.78868 33.52180 2043 ft 173 kts 42°
2026-04-25 12:32 34.79702 33.53152 1833 ft 158 kts 42°
2026-04-25 12:33 34.80481 33.54071 1627 ft 154 kts 43°
2026-04-25 12:33 34.81248 33.54987 1424 ft 155 kts 43°
2026-04-25 12:33 34.81989 33.55876 1234 ft 145 kts 43°
2026-04-25 12:33 34.82705 33.56738 1049 ft 144 kts 45°
2026-04-25 12:34 34.83407 33.57586 859 ft 144 kts 44°
2026-04-25 12:34 34.84115 33.58445 671 ft 143 kts 46°
2026-04-25 12:34 34.84827 33.59307 471 ft 144 kts 46°
2026-04-25 12:34 34.85298 33.59869 361 ft 144 kts 47°
2026-04-25 12:35 34.86241 33.61006 101 ft 142 kts 49°
2026-04-25 12:35 34.86890 33.61811 22 ft 117 kts 47°
2026-04-25 12:35 34.87353 33.62365 21 ft 67 kts 44°
2026-04-25 12:35 34.87587 33.62657 21 ft 41 kts 44°
2026-04-25 12:36 34.87758 33.62866 22 ft 25 kts 46°
2026-04-25 12:36 34.87864 33.62891 22 ft 16 kts 319°
2026-04-25 12:36 34.87945 33.62799 21 ft 12 kts 314°
2026-04-25 12:36 34.87928 33.62710 20 ft 13 kts 224°
2026-04-25 12:37 34.87863 33.62631 21 ft 14 kts 225°
2026-04-25 12:37 34.87789 33.62540 20 ft 17 kts 225°
2026-04-25 12:37 34.87697 33.62430 20 ft 19 kts 224°
2026-04-25 12:37 34.87599 33.62314 20 ft 20 kts 226°
2026-04-25 12:38 34.87499 33.62189 20 ft 21 kts 225°
2026-04-25 12:38 34.87394 33.62061 20 ft 22 kts 225°
2026-04-25 12:38 34.87280 33.61923 21 ft 24 kts 224°
2026-04-25 12:38 34.87159 33.61774 21 ft 26 kts 225°
2026-04-25 12:39 34.87028 33.61615 21 ft 27 kts 226°
2026-04-25 12:39 34.86895 33.61452 20 ft 27 kts 224°
2026-04-25 12:39 34.86759 33.61288 20 ft 28 kts 226°
2026-04-25 12:39 34.86640 33.61137 21 ft 14 kts 228°
2026-04-25 12:40 34.86645 33.61065 21 ft 9 kts 307°
2026-04-25 12:40 34.86694 33.61007 20 ft 10 kts 316°
2026-04-25 12:40 34.86749 33.60941 20 ft 12 kts 315°
2026-04-25 12:40 34.86810 33.60868 20 ft 13 kts 315°
2026-04-25 12:41 34.86866 33.60788 20 ft 10 kts 288°
2026-04-25 12:41 34.86883 33.60727 21 ft 8 kts 320°
2026-04-25 12:41 34.86919 33.60710 22 ft 1 kts 342°
2026-04-25 12:41 34.86924 33.60708 21 ft 0 kts 341°
2026-04-25 12:42 34.86925 33.60708 21 ft 0 kts 341°